Regional Weather Roundup
Issued by NWS

Home | Current Version | Previous Version | Graphics & Text | Print | Product List | Glossary On
Versions: 1 2 3 4 5 6 7 8 9 10 11 12 13 14 15 16 17 18 19 20 21 22 23 24 25 26 27 28 29 30 31 32 33 34 35 36 37 38 39 40 41 42 43 44 45 46 47 48 49 50
000
ASUS43 KIND 281909
RWRIN

WEATHER ROUNDUP FOR INDIANA
NATIONAL WEATHER SERVICE INDIANAPOLIS IN
300 PM EDT THU JUL 28 2016

NOTE: "FAIR" INDICATES FEW OR NO CLOUDS BELOW 12,000 FEET WITH NO
SIGNIFICANT WEATHER AND/OR OBSTRUCTIONS TO VISIBILITY.

* - STATION DOES NOT REPORT WEATHER SUCH AS PRECIPITATION OR FOG.

+ - STATION NOT QUALITY CONTROLLED BY THE NATIONAL WEATHER SERVICE.
    USE DATA WITH CAUTION...ESPECIALLY DEWPOINT AND RELATIVE
    HUMIDITY OBSERVATIONS.

INZ001>003-010>013-019-020-282000-
NORTHWEST INDIANA

CITY           SKY/WX    TMP DP  RH WIND       PRES   REMARKS
GARY /AIRPORT/ PTSUNNY   84  72  65 NE9       29.87F
KNOX *+        SUNNY     84  54  34 SE3       29.89S
LA PORTE +     PTSUNNY   85  69  57 S3        29.89F
MICHIGAN CITY+ PTSUNNY   81  70  69 N5        29.88F
MONTICELLO +   PTSUNNY   82  66  58 CALM      29.88F
RENSSELAER +   SUNNY     82  68  61 CALM      29.88F
VALPARAISO     MOSUNNY   86  67  52 S10       29.88F

$$

LMZ046-743>745-282000-
SOUTHERN LAKE MICHIGAN

STATION/POSITION TIME  TEMP    WIND        PRES    WAVE
                       AIR SEA DIR/SP/G            HT
                 (UTC) (F)     (DEG/KT/KT) (MB)    (FT)
BURNS HARBOR     1800   79      30/  8/  8 1012.2F
MICHIGAN CITY    1800   79     350/  7/  8   N/A
5NW MICH CITY    1900   79 79   10/  8/  8   N/A     0

$$

INZ004-005-014>016-021>024-282000-
NORTH CENTRAL INDIANA

CITY           SKY/WX    TMP DP  RH WIND       PRES   REMARKS
GOSHEN         CLOUDY    87  63  44 E6        29.89F
LOGANSPORT +   CLOUDY    81  68  65 CALM      29.89F
PERU/GRISSOM   CLOUDY    85  67  55 SE6       29.87
ROCHESTER +    CLOUDY    86  70  58 NE6       29.89F
SOUTH BEND       N/A    N/A N/A N/A MISG      29.89F
WARSAW +       CLOUDY    82  68  61 E5        29.89F

$$

INZ006>009-017-018-025>027-282000-
NORTHEAST INDIANA

CITY           SKY/WX    TMP DP  RH WIND       PRES   REMARKS
ANGOLA *+        N/A     82  75  78 NE5       29.91S
AUBURN +       CLOUDY    86  63  45 NE7       29.90S
FORT WAYNE     CLOUDY    85  66  53 SE6       29.88F
HUNTINGTON +   CLOUDY    82  66  59 CALM      29.89S

$$

INZ028-029-035-036-043>045-051>053-282000-
WEST CENTRAL INDIANA

CITY           SKY/WX    TMP DP  RH WIND       PRES   REMARKS
CRAWFORDSVL +  CLOUDY    81  71  72 CALM      29.89F
GREENCASTLE +  CLOUDY    81  73  78 CALM      29.89F
LAFAYETTE      MOSUNNY   83  70  64 VRB3      29.87F
TERRE HAUTE    CLOUDY    84  72  67 CALM      29.87F

$$

INZ030>032-037>040-046>048-054>057-064-065-282000-
CENTRAL INDIANA

CITY           SKY/WX    TMP DP  RH WIND       PRES   REMARKS
ANDERSON       PTSUNNY   84  66  54 CALM      29.90F
COLUMBUS       SUNNY     81  75  83 CALM      29.89S
FISHERS *+     CLOUDY    86  72  62 NW3       29.88F
INDIANAPOLIS   CLOUDY    85  68  56 CALM      29.89F
-EAGLE CREEK   CLOUDY    87  67  51 NW5       29.88S
KOKOMO *+      CLOUDY    84  66  54 NE3       29.89S
MARION +       PTSUNNY   82  68  63 CALM      29.89F HAZE
MT COMFORT *+  CLOUDY    84  68  58 NW5       29.89S
SHELBYVILLE    CLOUDY    85  70  60 CALM      29.88F
ZIONSVILLE +   CLOUDY    81  69  66 CALM      29.90F

$$

INZ033-034-041-042-049-050-058-059-282000-
EAST CENTRAL INDIANA

CITY           SKY/WX    TMP DP  RH WIND       PRES   REMARKS
MUNCIE         CLOUDY    86  68  54 N5        29.88F

$$

INZ060-061-067>069-081>083-085>088-282000-
SOUTHWEST INDIANA

CITY           SKY/WX    TMP DP  RH WIND       PRES   REMARKS
EVANSVILLE     PTSUNNY   82  74  76 SW6       29.89F
HUNTINGBURG *+ CLOUDY    81  73  78 SW10      29.89F
WASHINGTON +   PTSUNNY   84  76  76 MISG      29.88F

$$

INZ062-063-066-070>080-084-089>092-282000-
SOUTH CENTRAL AND SOUTHEAST INDIANA

CITY           SKY/WX    TMP DP  RH WIND       PRES   REMARKS
BLOOMINGTON    PTSUNNY   82  74  76 W5        29.88F
MADISON *+     CLOUDY    81  70  69 CALM      29.91F
NORTH VERNON + CLOUDY    81  77  89 CALM      29.90F
SEYMOUR +      CLOUDY    84  73  70 CALM      29.89S

$$





USA.gov is the U.S. government's official web portal to all federal, state and local government web resources and services.